Syracuse, NY

8:34 PM EDT on March 28, 2017 (GMT -0400)
Syracuse Hancock International

Weather History for KSYR - October, 2014

Change the Weather History Date:

Monday, October 6, 2014

  Actual Average Record
Temperature  
Mean Temperature 55 °F 54 °F  
Max Temperature 70 °F 64 °F 86 °F (1937)
Min Temperature 40 °F 44 °F 23 °F (1984)
Degree Days  
Heating Degree Days 10 11  
Month to date heating degree days 40 63  
Since 1 July heating degree days 154 230  
Cooling Degree Days 0 0  
Month to date cooling degree days 0 0  
Year to date cooling degree days 634 565  
Growing Degree Days 4 (Base 50)    
Moisture  
Dew Point 40 °F    
Average Humidity 58    
Maximum Humidity 79    
Minimum Humidity 37    
Precipitation  
Precipitation T in 0.11 in 3.55 in (1955)
Month to date precipitation 0.60 0.69  
Year to date precipitation 31.24 28.97  
Snow  
Snow 0.00 in 0.00 in 0.00 in (2002)
Month to date snowfall 0.0 0.0  
Since 1 July snowfall 0.0 0.0  
Since 1 September snowfall 0.0 0.0  
Snow Depth 0.00 in    
Sea Level Pressure  
Sea Level Pressure 29.86 in    
Wind  
Wind Speed 12 mph (SE)    
Max Wind Speed 29 mph    
Max Gust Speed 43 mph    
Visibility 10 miles    
Events Rain    
T = Trace of Precipitation, MM = Missing Value Source: NWS Daily Summary

Daily Weather History Graph

Daily Weather History Graph

Search for Another Location

Airport or City:

Trip Planner

Search our weather history database for the weather conditions in past years. The results will help you decide how hot, cold, wet, or windy it might be!

Date:

Astronomy

Oct. 06, 2014 Rise Set
Actual Time 7:07 AM EDT 6:36 PM EDT
Civil Twilight 6:39 AM EDT 7:05 PM EDT
Nautical Twilight 6:06 AM EDT 7:38 PM EDT
Astronomical Twilight 5:32 AM EDT 8:11 PM EDT
Moon 5:34 PM EDT (10/6) 4:48 AM EDT (10/6)
Length of Visible Light 12h 26m
Length of Day
11h 29m
Waxing Gibbous, 95% of the Moon is Illuminated
Oct 6
Waxing Gibbous
Oct 8
Full
Oct 15
Last Quarter
Oct 23
New
Oct 30
First Quarter

Hourly Weather History & Observations

Time (EDT) Temp. Windchill Dew Point Humidity Pressure Visibility Wind Dir Wind Speed Gust Speed Precip Events Conditions
12:54 AM 43.0 °F 38.8 °F 36.0 °F 76% 29.91 in 10.0 mi ESE 6.9 mph - N/A   Partly Cloudy
1:54 AM 42.1 °F 38.4 °F 35.1 °F 76% 29.91 in 10.0 mi East 5.8 mph - N/A   Scattered Clouds
2:54 AM 39.9 °F 34.5 °F 34.0 °F 79% 29.90 in 10.0 mi ESE 8.1 mph - N/A   Partly Cloudy
3:54 AM 42.1 °F 37.1 °F 34.0 °F 73% 29.88 in 10.0 mi ESE 8.1 mph - N/A   Overcast
4:54 AM 45.0 °F 40.6 °F 36.0 °F 71% 29.88 in 10.0 mi ESE 8.1 mph - N/A   Overcast
5:54 AM 46.9 °F - 36.0 °F 66% 29.88 in 10.0 mi ESE 9.2 mph - N/A   Overcast
6:54 AM 46.9 °F - 35.1 °F 63% 29.88 in 10.0 mi SE 10.4 mph - N/A   Scattered Clouds
7:54 AM 48.9 °F - 36.0 °F 61% 29.89 in 10.0 mi SE 9.2 mph - N/A   Mostly Cloudy
8:54 AM 53.1 °F - 37.0 °F 55% 29.89 in 10.0 mi SSE 6.9 mph - N/A   Mostly Cloudy
9:54 AM 52.0 °F - 39.0 °F 61% 29.91 in 10.0 mi SSE 9.2 mph - 0.00 in Rain Light Rain
10:54 AM 54.0 °F - 39.0 °F 57% 29.90 in 10.0 mi SE 11.5 mph 20.7 mph 0.00 in Rain Light Rain
11:54 AM 57.9 °F - 41.0 °F 53% 29.88 in 10.0 mi Variable 3.5 mph - 0.00 in   Mostly Cloudy
12:54 PM 64.9 °F - 39.0 °F 39% 29.85 in 10.0 mi South 24.2 mph 42.6 mph N/A   Scattered Clouds
1:54 PM 66.9 °F - 39.9 °F 37% 29.84 in 10.0 mi South 18.4 mph 36.8 mph N/A   Scattered Clouds
2:54 PM 68.0 °F - 41.0 °F 37% 29.82 in 10.0 mi South 19.6 mph 31.1 mph N/A   Scattered Clouds
3:54 PM 69.1 °F - 43.0 °F 39% 29.82 in 10.0 mi South 16.1 mph 23.0 mph N/A   Scattered Clouds
4:54 PM 68.0 °F - 42.1 °F 39% 29.83 in 10.0 mi South 18.4 mph 27.6 mph N/A   Scattered Clouds
5:54 PM 66.0 °F - 43.0 °F 43% 29.83 in 10.0 mi SSE 16.1 mph 23.0 mph N/A   Scattered Clouds
6:54 PM 64.0 °F - 44.1 °F 48% 29.83 in 10.0 mi SE 9.2 mph - N/A   Mostly Cloudy
7:54 PM 64.9 °F - 45.0 °F 48% 29.83 in 10.0 mi SE 10.4 mph - 0.00 in Rain Light Rain
8:54 PM 64.9 °F - 44.1 °F 47% 29.83 in 10.0 mi SSE 12.7 mph 21.9 mph 0.00 in Rain Light Rain
9:54 PM 64.0 °F - 44.1 °F 48% 29.83 in 10.0 mi SSE 12.7 mph - 0.00 in Rain Light Rain
10:54 PM 64.0 °F - 44.1 °F 48% 29.83 in 10.0 mi SSE 12.7 mph - 0.00 in Rain Light Rain
11:54 PM 64.0 °F - 45.0 °F 50% 29.83 in 10.0 mi SSE 15.0 mph 21.9 mph 0.00 in   Overcast